Skip Page Navigation
NASA JPL Caltech
NASA Logo - Jet Propulsion Laboratory + View the NASA Portal
+ Center for Near-Earth Object Studies
JPL Home Earth Solar System Stars & Galaxies Technology
JPL Solar System Dynamics
BODIES ORBITS EPHEMERIDES TOOLS PHYSICAL DATA DISCOVERY FAQ SITE MAP
IMPORTANT: The SSD Announcement email list is now available. Major changes are coming in the near future, including possible hostname and/or URL changes. To be notified of such changes, subscribe to this email list.

Please visit this page for more details.


JPL Small-Body Database Browser
Search: [ help ]  
105626 (2000 SW4)
Classification: Inner Main-belt Asteroid          SPK-ID: 2105626
Ephemeris | Orbit Diagram | Orbital Elements | Mission Design | Physical Parameters | Discovery Circumstances ]

[ show orbit diagram ]
Orbital Elements at Epoch 2459000.5 (2020-May-31.0) TDB
Reference: JPL 16 (heliocentric ecliptic J2000)
 Element Value Uncertainty (1-sigma)   Units 
e .07501394580590688 9.1318e-08  
a 1.993365958964615 7.3732e-09 au
q 1.843835712947504 1.8271e-07 au
i 21.78300676517404 9.4306e-06 deg
node 28.0589615941206 1.0876e-05 deg
peri 329.9269502919395 3.4821e-05 deg
M 356.2566245814114 3.2268e-05 deg
tp 2459011.189068653963
(2020-Jun-10.68906865)
9.2141e-05 TDB
period 1027.966550273936
2.81
5.7034e-06
1.562e-08
d
yr
n .3502059477558545 1.943e-09 deg/d
Q 2.142896204981727 7.9263e-09 au
  Orbit Determination Parameters
   # obs. used (total)      369  
   data-arc span      6817 days (18.66 yr)  
   first obs. used      2000-09-20  
   last obs. used      2019-05-21  
   planetary ephem.      DE431  
   SB-pert. ephem.      SB431-N16  
   condition code      0  
   norm. resid. RMS      .61734  
   source      ORB  
   producer      Otto Matic  
   solution date      2020-Feb-24 02:26:20  

Additional Information
 Earth MOID = .858608 au 
 Jupiter MOID = 3.10154 au 
 T_jup = 3.757 
[ show covariance matrix ]

Ephemeris | Orbit Diagram | Orbital Elements | Mission Design | Physical Parameters | Discovery Circumstances ]

Physical Parameter Table
Parameter Symbol Value Units Sigma Reference Notes
absolute magnitude H 16.9   n/a MPO379272  

105626 (2000 SW4)          Discovered 2000-Sep-20 by LINEAR at Socorro
Reference: 20051019/Numbers.arcLast Updated: 2005-10-26
Ephemeris | Orbit Diagram | Orbital Elements | Mission Design | Physical Parameters | Discovery Circumstances ]
ABOUT SSD CREDITS/AWARDS PRIVACY/COPYRIGHT GLOSSARY LINKS
FirstGov 2020-Apr-01 20:48 UT
(server date/time)  
NASA Home Page
Site Manager:   Ryan S. Park
Webmaster  Alan B. Chamberlin